Regional Weather Roundup
Issued by NWS

Home | Current Version | Previous Version | Text Only | Print | Product List | Glossary On
Versions: 1 2 3 4 5 6 7 8 9 10 11 12 13 14 15 16 17 18 19 20 21 22 23 24 25 26 27 28 29 30 31 32 33 34 35 36 37 38 39 40 41 42 43 44 45 46 47 48 49 50
000
ASUS43 KDTX 190101
RWRMI
MICHIGAN HOURLY REGIONAL WEATHER ROUNDUP
NATIONAL WEATHER SERVICE DETROIT/PONTIAC MI
800 PM EST THU DEC 18 2014

NOTE: "FAIR" INDICATES FEW OR NO CLOUDS BELOW 12,000 FEET WITH NO
SIGNIFICANT WEATHER AND/OR OBSTRUCTION TO VISIBILITY.

MIZ047>049-052>055-059>063-066>070-074>076-081>083-190200-
SOUTHEAST LOWER MICHIGAN

CITY           SKY/WX    TMP DP  RH WIND       PRES   REMARKS
ADRIAN         CLOUDY    30  26  85 NW8       30.20S WCI  22
ALMA           CLOUDY    28  24  85 N7        30.20S WCI  21
ANN ARBOR      CLOUDY    30  28  92 W10       30.17S FOG     WCI  21
BAD AXE        CLOUDY    26  23  89 NW6       30.18S WCI  19
CARO           CLOUDY    26  23  86 N7        30.19S WCI  19
DETROIT CITY   CLOUDY    34  27  75 N3        30.18R
DETROIT        LGT SNOW  32  28  86 W6        30.18S VSB 3/4 WCI  26
FLINT          CLOUDY    30  26  85 N6        30.18S WCI  24
GROSSE ILE     CLOUDY    32  28  86 SW5       30.17S WCI  27
HILLSDALE      CLOUDY    29  28  96 W7        30.17S FOG     WCI  21
HOWELL         CLOUDY    30  29  97 N3        30.16S FOG

CITY           SKY/WX    TMP DP  RH WIND       PRES   REMARKS
JACKSON        CLOUDY    28  26  92 W6        30.18S WCI  22
LAMBERTVILLE   CLOUDY    32  28  86 W8        30.20S WCI  25
LANSING        CLOUDY    30  27  88 N3        30.19R
LAPEER         CLOUDY    26  25  94 N6        30.18S WCI  20
MASON          MIX PCPN  29  28  93 W6        30.18R WCI  23
MONROE         CLOUDY    30  30 100 W6        30.17S FOG     WCI  24
MT. CLEMENS    CLOUDY    30  30 100 N8        30.15S WCI  22
PONTIAC        FLURRIES  29  27  92 N6        30.15S WCI  23
PORT HOPE        N/A     30  23  75 N6        30.16S WCI  24
PORT HURON     CLOUDY    28  27  93 N6        30.18S FOG     WCI  22
TRI CITIES     CLOUDY    29  21  72 N12       30.21S WCI  19
TROY           CLOUDY    33  29  85 NW5       30.18S WCI  28
SAGINAW HB     CLOUDY    28  25  86 N5        30.20R WCI  23
$$
MIZ043>046-050>051-056>058-064>065-071>073-077>080-190200-
SOUTHWEST LOWER MICHIGAN

CITY           SKY/WX    TMP DP  RH WIND       PRES   REMARKS
BATTLE CREEK   CLOUDY    29  25  85 W8        30.19S FOG     WCI  21
BENTON HARBOR  CLOUDY    29  26  89 SW8       30.22S WCI  21
BIG RAPIDS     CLOUDY    28  23  84 N5        30.18S WCI  22
COLDWATER      CLOUDY    28  25  89 W6        30.19S WCI  21
FREMONT        CLOUDY    28  22  76 NE5       30.20S WCI  23
HOLLAND        CLOUDY    32  28  85 W3        30.20S
GRAND RAPIDS   CLOUDY    31  25  78 N6        30.19R WCI  25
IONIA          CLOUDY    31  26  81 N7        30.17S WCI  24
KALAMAZOO      CLOUDY    28  23  81 W9        30.20S WCI  19
LUDINGTON      CLEAR     25  20  80 NE5       30.22S WCI  19
MARSHALL       CLOUDY    27  25  92 SW5       30.18S FOG     WCI  22
MOUNT PLEASANT CLOUDY    28  22  79 NE6       30.19S WCI  22
MUSKEGON       CLOUDY    30  24  78 N12       30.22R WCI  20
SOUTH HAVEN    CLOUDY    32  31  94 W5        30.20S WCI  27
$$
MIZ016>042-190200-
NORTHERN LOWER MICHIGAN

CITY           SKY/WX    TMP DP  RH WIND       PRES   REMARKS
ALPENA         CLEAR     18  15  88 W3        30.21F
BEAVER ISLAND  CLEAR     20  17  88 CALM      30.24S
BELLAIRE       CLEAR     18  16  92 CALM      30.24S
CADILLAC       MOCLDY    20  18  91 CALM      30.17S
CHARLEVOIX     CLEAR     22  15  76 E5        30.25S WCI  15
FRANKFORT      CLEAR     20  19  93 CALM      30.23R
GAYLORD        CLEAR     15  12  88 CALM      30.18R
GRAYLING       PTCLDY    12  10  92 N3        30.20R
HARBOR SPRINGS CLEAR     13  10  85 CALM      30.23S
HOUGHTON LAKE  CLOUDY    19  15  84 NE5       30.19S WCI  12
MANISTEE       CLEAR     23  16  74 CALM      30.23S
OSCODA         CLOUDY    25  20  83 NW8       30.19F WCI  16
PELLSTON       CLEAR      7   4  87 CALM      30.23S
ROGERS CITY    CLEAR     17  14  88 CALM      30.22F
TRAVERSE CITY  CLEAR     22  16  78 E7        30.22R WCI  13
$$
MIZ007>008-015-190200-
EASTERN UPPER MICHIGAN

CITY           SKY/WX    TMP DP  RH WIND       PRES   REMARKS
KINROSS        PTCLDY    14  12  92 N3        30.23S
MACKINAC ISLAN PTCLDY    21  17  83 N7        30.22S WCI  12
NEWBERRY       CLEAR     19  17  90 N3        30.22F
S. S. MARIE    PTCLDY    19   8  62 N5        30.21F WCI  12
MUNISING         N/A     21  15  78 CALM      30.25S
$$
MIZ004>006-011>014-085-190200-
CENTRAL UPPER MICHIGAN

CITY           SKY/WX    TMP DP  RH WIND       PRES   REMARKS
MANISTIQUE     CLEAR     19  17  91 N7        30.23F WCI   9
ESCANABA       PTCLDY    19  16  86 CALM      30.25S
MENOMINEE      CLEAR     19  16  86 CALM      30.25S
SAWYER-GWINN   CLEAR     18  14  86 N3        30.22F
$$
MIZ001>003-009>011-084-190200-
WESTERN UPPER MICHIGAN

CITY           SKY/WX    TMP DP  RH WIND       PRES   REMARKS
IRON MOUNTAIN  PTCLDY    14  12  92 CALM      30.22S
HOUGHTON       CLEAR     17  14  88 NE6       30.24S WCI   9
COPPER HARBOR    N/A     18  13  80 W7        30.27S WCI   9
IRONWOOD       CLOUDY    19  18  93 CALM      30.22R
$$

ABBREVIATIONS USED IN REMARKS
   TC - TEMPERATURE IN CELSIUS
  WCI - WIND CHILL INDEX
   HX - HEAT INDEX
  VSB - VISIBILITY



USA.gov is the U.S. government's official web portal to all federal, state and local government web resources and services.